User: anonymous   Login
Location: Ertinghausen
(51.6624°N, 9.7874°E)
Time: 20:43:11
(UTC+00:00)
Language:

Cosmos 1315 Rocket - Orbit

View from above orbital plane
View from above orbital plane
View from above satellite
View from above satellite

Ground track
Ground track

The orbit data is extracted from the following two-line orbital elements,

1 12904U 81103B   24206.57879023  .00005649  00000-0  31874-3 0  9994
2 12904  81.1615 184.9504 0021791 127.9923 232.3276 15.12792139883288
Epoch (UTC): 24 July 2024 13:53:27
Eccentricity: 0.0021791
inclination: 81.1615°
perigee height: 512 km
apogee height: 543 km
right ascension of ascending node: 184.9504°
argument of perigee: 127.9923°
revolutions per day: 15.12792139
mean anomaly at epoch: 232.3276°
orbit number at epoch: 88328

The dashed part of the orbit path shows where the satellite is in the earth's shadow,  

DLR